Regional Weather Roundup
Issued by NWS Grand Forks, ND

Home | Current Version | Previous Version | Graphics & Text | Print | Product List | Glossary On
Versions: 1 2 3 4 5 6 7 8 9 10 11 12 13 14 15 16 17 18 19 20 21 22 23 24 25 26 27 28 29 30 31 32 33 34 35 36 37 38 39 40 41 42 43 44 45 46 47 48 49 50
000
ASUS43 KFGF 272031
RWRFGF
PRAIRIE TO PINES  WEATHER ROUNDUP
NATIONAL WEATHER SERVICE EASTERN NORTH DAKOTA/GRAND FORKS ND
300 PM CDT MON MAR 27 2017

 **SATELLITE DATA USED TO AUGMENT SKY COVER AT AUTOMATED STATIONS**
 *****  WEATHER ACROSS EASTERN NORTH DAKOTA  *****

CITY           SKY/WX    TMP DP  RH WIND       PRES   REMARKS
GRAND FORKS    CLOUDY    42  39  89 CALM      30.01R
GRAND FRKS AFB CLOUDY    42  42  99 CALM      30.01R
DEVILS LAKE    FAIR      52  40  63 SE9       29.94F
FARGO          FAIR      56  40  55 VRB3      29.96F
WAHPETON ARPT    N/A     54  36  50 CALM      29.96F
$$

 ***** WEATHER ACROSS CENTRAL AND WESTERN NORTH DAKOTA  *****

CITY           SKY/WX    TMP DP  RH WIND       PRES   REMARKS
BISMARCK       FAIR      64  33  31 VRB5      29.91F
MINOT          FAIR      44  39  82 N12       29.94R
JAMESTOWN      FAIR      57  37  47 VRB3      29.92F
MINOT AFB      CLOUDY    39  37  92 N14       29.93F
GARRISON         N/A     57  37  47 SE3       29.90F
WILLISTON      FAIR      57  29  34 E10       29.90F
DICKINSON      FAIR      60  23  24 S12G18    29.85F
HETTINGER      FAIR      59  29  31 S7G17     29.88F
$$

 *****  OTHER AIRPORT OBSERVATIONS IN OUR AREA  *****

CITY           SKY/WX    TMP DP  RH WIND       PRES   REMARKS
WALHALLA       NOT AVBL
GRAFTON AIRPOR CLOUDY    39  39 100 CALM      30.03S
VALLEY CITY AR FAIR      55  43  62 E7        29.96F
CANDO          NOT AVBL
CAVALIER APRT  CLOUDY    37  37 100 CALM      30.02R FOG
GWINNER        CLEAR     59  37  44 MISG      29.94F
SHEYENNE NWR     N/A     57  37  47 E3        29.95S
ROLLA          FOG       34  34 100 NE10      29.97S VSB<1/4
 ***** THE ABOVE OBSERVATIONS ARE NON NWS ARE NOT QUALITY
       CONTROLLED AND MAY MIS-REPORT RAIN FOR SNOW...
$$

  *****  WEATHER ACROSS NORTHERN MINNESOTA  *****

CITY           SKY/WX    TMP DP  RH WIND       PRES   REMARKS
FLAG ISLAND    FAIR      39  30  70 S5        29.99S
WARROAD        FAIR      48  37  66 NE6       30.00R
ROSEAU         FAIR      52  41  66 NW3       29.99S
HALLOCK        CLOUDY    36  36 100 CALM      30.02R FOG
THF RVR FALLS  FAIR     N/A N/A N/A VRB3      29.98F
BAUDETTE       FAIR      51  33  50 CALM      29.97F
WASKISH        FAIR      46  36  66 W7        29.97S
CROOKSTON      FAIR      45  45 100 W6        30.00R
STEPHEN NDAWN    N/A     39  37  93 N3          N/A
GREENBUSH NDAW   N/A     46  43  87 NW7         N/A
$$
  *****  WEATHER ACROSS CENTRAL AND WEST MINNESOTA  *****

CITY           SKY/WX    TMP DP  RH WIND       PRES   REMARKS
FOSSTON        FAIR      57  43  58 CALM      29.97S
BEMIDJI        FAIR      55  31  40 SE6       29.96S
PARK RAPIDS    FAIR      57  34  41 VRB3      29.94F
ELBOW LAKE     FAIR      55  36  49 SE3       29.97S
WADENA         FAIR      55  36  47 SE3       29.95S
DETROIT LAKES  FAIR      55  34  44 SW3       29.97
MOORHEAD       FAIR      54  41  62 CALM      29.98S
FERGUS FALLS   FAIR      55  37  50 CALM      29.98F
MORRIS MN      FAIR      57  34  41 E6        29.95S
STAPLES        FAIR      55  34  44 NE3       29.95S
$$
  *****  WEATHER ELSEWHERE ACROSS MINNESOTA  *****

CITY           SKY/WX    TMP DP  RH WIND       PRES   REMARKS
DULUTH         PTSUNNY   50  35  56 NE6       29.96F
INTRNTL FALLS  FAIR      53  29  39 MISG      29.97F
ELY            FAIR      50  27  40 N3        29.96S
CLOQUET        PTSUNNY   52  30  43 NE6       29.96S
WHEATON        FAIR      55  34  44 CALM      29.97F
BRAINERD       CLOUDY    53  34  48 CALM      29.95F
HIBBING          N/A     51  32  48 VRB5      29.95F
ALEXANDRIA     CLOUDY    55  35  47 CALM      29.96F
SAINT CLOUD    CLOUDY    54  36  50 N7        29.95F
MINNEAPOLIS    PTSUNNY   56  32  40 VRB6      29.95F
$$

  *****  WEATHER ACROSS SOUTH DAKOTA  *****

CITY           SKY/WX    TMP DP  RH WIND       PRES   REMARKS
SIOUX FALLS    FAIR      58  37  45 E6        29.94F
BROOKINGS      FAIR      55  35  47 N8        29.93F
WATERTOWN      FAIR      55  35  47 CALM      29.93F
HURON          PTSUNNY   59  33  37 VRB5      29.93F
SISSETON         N/A     56  39  53 SE7       29.94F
ABERDEEN       FAIR      59  33  37 E5        29.93F
MITCHELL       FAIR      58  35  42 S5        29.94F
PIERRE         FAIR      58  31  35 SE8G17    29.89F
MOBRIDGE       FAIR      60  35  39 S9        29.88F
RAPID CITY     FAIR      54  42  64 E9        29.85F
$$

  *****  SOME WEATHER IN NEARBY STATES *****

CITY           SKY/WX    TMP DP  RH WIND       PRES   REMARKS
GLASGOW MT     CLOUDY    52  30  43 NW6       29.86S
GREAT FALLS MT CLOUDY    53  26  35 W13       29.83S
CHEYENNE WY    PTSUNNY   53  27  36 S7        29.87F
SCOTTSBLUFF NE FAIR      66  24  20 SW12      29.82F
OMAHA NE       CLOUDY    50  40  68 NE6       29.96F
DES MOINES IA  CLOUDY    49  42  77 N7        29.95F
DAVENPORT IA   CLOUDY    51  45  79 N5        29.91F
CHICAGO IL     CLOUDY    50  43  77 NE9       29.90F
EAU CLAIRE WI  CLOUDY    44  36  73 NE3       29.97R
LA CROSSE WI   CLOUDY    50  42  74 NW9       29.94F
$$

  *****  SOME NATIONAL WEATHER *****

CITY           SKY/WX    TMP DP  RH WIND       PRES   REMARKS
LA GUARDIA NY  CLOUDY    49  42  77 NE9       30.00F
RALEIGH NC     PTSUNNY   78  58  49 SW12      30.01F
ATLANTA GA     PTSUNNY   76  58  53 S14       30.00F
NEW ORLEANS LA FAIR      81  64  56 S16G24    29.96F
OKLAHOMA CITY  FAIR      65  47  52 N12       29.92F
ALBUQUERQUE NM FAIR      65  19  17 S12       29.90F
SALT LAKE CITY LGT RAIN  42  40  92 SE5       29.87F
LOS ANGELES CA FAIR      65  54  67 W16       30.01F
BOISE ID       PTSUNNY   52  34  50 NW15      30.02S
SEATTLE WA     FAIR      53  42  66 SW15      30.12R
$$

*** WEATHER ACROSS MANITOBA...SASKATCHEWAN AND ONTARIO ***
                ***ONTARIO***

CITY           SKY/WX    TMP DP  RH WIND       PRES   REMARKS
GERALDTON      PTSUNNY   46  25  42 NW8       29.92S
THUNDER BAY    PTSUNNY   52  34  50 S6        29.95F
SIOUX LOOKOUT  PTSUNNY   48  23  37 VRB2      29.97F
TORONTO        PTSUNNY   59  52  77 W13       29.85F
BIG TROUT LK   CLOUDY    23  16  74 NW16G23   30.06R WCI  10
PICKLE LAKE    PTSUNNY   41  21  45 W8        29.97F
DRYDEN         PTSUNNY   50  27  40 VRB3      29.97F
KENORA         PTSUNNY   48  28  46 VRB6      29.99F
$$
                *** MANITOBA***

CITY           SKY/WX    TMP DP  RH WIND       PRES   REMARKS
BRANDON        PTSUNNY   41  32  70 E17       30.01S
DAUPHIN        CLOUDY    36  30  80 E10       30.10R
ISLAND LAKE    PTSUNNY   27  16  63 NW12      30.14R WCI  16
PILOT MOUND      N/A     39  36  87 SE5         N/A
THE PAS        MOSUNNY   28  18  64 N9        30.19R WCI  20
THOMPSON       MOSUNNY   25  16  68 N6        30.21S WCI  18
WINNIPEG       PTSUNNY   39  30  70 NE13      30.04F
LYNN LAKE      SUNNY     25   5  42 SE8       30.21R WCI  16
CHURCHILL      CRYSTALS  10   7  85 N12       30.29R WCI  -4
GILLAM         FLURRIES  23  12  63 N10       30.19S WCI  12
$$
                ***SASKATCHEWAN***

CITY           SKY/WX    TMP DP  RH WIND       PRES   REMARKS
ESTEVAN        CLOUDY    43  39  87 NE8       29.97S FOG
KINDERSLEY     PTSUNNY   39  34  81 E15       29.90S
LLOYDMINSTER   CLOUDY    32  32 100 SE15      29.93R WCI  22
PRINCE ALBERT  CLOUDY    39  27  60 E10       30.05F
REGINA         CLOUDY    43  36  75 E8        29.97S
YORKTON        CLOUDY    37  34  87 E13       30.02F
N. BATTLEFORD  CLOUDY    34  34 100 SE18G25   29.99S WCI  23
LA RONGE       MOSUNNY   32  23  69 NE14      30.12S WCI  22
SASKATOON      CLOUDY    41  32  70 E14       30.01
SWIFT CURRENT  SUNNY     50  27  40 E10       29.88S
$$
NOTE: THESE ARE AUTOMATED STATIONS WITH LIMITED QUALITY CONTROL
      "FAIR" INDICATES FEW OR NO CLOUDS BELOW 12,000 FEET WITH NO
      SIGNIFICANT WEATHER AND/OR OBSTRUCTIONS TO VISIBILITY.
      SKY/WX - SKY CONDITION AND SIGNIFICANT WEATHER.
      TMP - AIR TEMPERATURE.    DP   - DEWPOINT TEMPERATURE.
      RH  - RELATIVE HUMIDITY.  PRES - PRESSURE.
      HX  - HEAT INDEX.         WCI  - WIND CHILL INDEX.
$



USA.gov is the U.S. government's official web portal to all federal, state and local government web resources and services.